Hoquiam, WA

5:55 PM PDT on September 24, 2016 (GMT -0700)
Bowerman

Weather History for KHQM - October, 2012

Change the Weather History Date:

Monday, October 8, 2012

  Actual Average Record
Temperature  
Mean Temperature 50 °F 54 °F  
Max Temperature 57 °F 62 °F 80 °F (1987)
Min Temperature 44 °F 47 °F 38 °F (2008)
Degree Days  
Heating Degree Days 14 11  
Month to date heating degree days 80  
Cooling Degree Days 0 0  
Month to date cooling degree days 0  
Year to date cooling degree days 23  
Moisture  
Dew Point 47 °F    
Average Humidity 84    
Maximum Humidity 100    
Minimum Humidity 72    
Precipitation  
Precipitation 0.00 in 0.17 in 1.83 in (1955)
Month to date precipitation 1.09  
Year to date precipitation 40.98  
Sea Level Pressure  
Sea Level Pressure 30.01 in    
Wind  
Wind Speed 5 mph (SSW)    
Max Wind Speed 13 mph    
Max Gust Speed -    
Visibility 9 miles    
Events      
T = Trace of Precipitation, MM = Missing Value Source: NWS Daily Summary

Daily Weather History Graph

Daily Weather History Graph

Search for Another Location

Airport or City:

Trip Planner

Search our weather history database for the weather conditions in past years. The results will help you decide how hot, cold, wet, or windy it might be!

Date:

Astronomy

Oct. 08, 2012 Rise Set
Actual Time 7:24 AM PDT 6:40 PM PDT
Civil Twilight 6:54 AM PDT 7:10 PM PDT
Nautical Twilight 6:19 AM PDT 7:46 PM PDT
Astronomical Twilight 5:43 AM PDT 8:21 PM PDT
Moon No Moon Rise 2:56 PM PDT (10/8)
Length of Visible Light 12h 16m
Length of Day
11h 15m
Last Quarter, 45% of the Moon is Illuminated
Oct 8
Last Quarter
Oct 15
New
Oct 21
First Quarter
Oct 29
Full
Nov 6
Last Quarter

Hourly Weather History & Observations

Time (PDT) Temp. Windchill Dew Point Humidity Pressure Visibility Wind Dir Wind Speed Gust Speed Precip Events Conditions
12:53 AM 48.9 °F - 43.0 °F 80% 29.94 in 10.0 mi NE 4.6 mph - N/A   Clear
1:53 AM 48.0 °F - 43.0 °F 83% 29.94 in 7.0 mi NE 3.5 mph - N/A   Clear
2:53 AM 46.9 °F - 43.0 °F 86% 29.95 in 9.0 mi Calm Calm - N/A   Clear
3:53 AM 44.1 °F 41.5 °F 41.0 °F 89% 29.95 in 10.0 mi ENE 4.6 mph - N/A   Clear
4:53 AM 45.0 °F - 41.0 °F 86% 29.96 in 10.0 mi Calm Calm - N/A   Clear
5:53 AM 45.0 °F 43.5 °F 42.1 °F 90% 29.96 in 9.0 mi East 3.5 mph - N/A   Clear
6:06 AM 46.4 °F 45.2 °F 44.6 °F 93% 29.96 in 9.0 mi ENE 3.5 mph - N/A   Scattered Clouds
6:14 AM 44.6 °F 43.1 °F 42.8 °F 93% 29.96 in 8.0 mi ENE 3.5 mph - N/A   Mostly Cloudy
6:53 AM 46.9 °F - 45.0 °F 93% 29.98 in 9.0 mi Calm Calm - N/A   Overcast
7:44 AM 50.0 °F - 48.2 °F 94% 29.98 in 6.0 mi South 8.1 mph - N/A   Overcast
7:53 AM 48.9 °F - 48.9 °F 100% 29.99 in 5.0 mi South 6.9 mph - N/A   Overcast
8:53 AM 48.9 °F - 48.0 °F 97% 30.00 in 8.0 mi South 6.9 mph - N/A   Overcast
9:35 AM 50.0 °F - 48.2 °F 94% 29.99 in 9.0 mi South 6.9 mph - N/A   Overcast
9:53 AM 51.1 °F - 48.9 °F 92% 30.01 in 10.0 mi South 6.9 mph - N/A   Overcast
10:44 AM 51.8 °F - 46.4 °F 82% 30.01 in 10.0 mi South 6.9 mph - N/A   Overcast
10:53 AM 52.0 °F - 46.9 °F 83% 30.02 in 10.0 mi South 4.6 mph - N/A   Overcast
11:53 AM 53.1 °F - 46.9 °F 80% 30.04 in 10.0 mi Calm Calm - N/A   Overcast
12:16 PM 55.4 °F - 46.4 °F 72% 30.03 in 10.0 mi WSW 3.5 mph - N/A   Overcast
12:41 PM 55.4 °F - 48.2 °F 77% 30.01 in 10.0 mi SSW 9.2 mph - N/A   Partly Cloudy
12:53 PM 57.0 °F - 48.0 °F 72% 30.03 in 10.0 mi SW 10.4 mph - N/A   Clear
1:53 PM 57.0 °F - 48.0 °F 72% 30.03 in 10.0 mi SW 11.5 mph - N/A   Clear
2:53 PM 57.0 °F - 48.0 °F 72% 30.02 in 10.0 mi SW 12.7 mph - N/A   Clear
3:46 PM 57.2 °F - 48.2 °F 72% 30.02 in 10.0 mi WSW 9.2 mph - N/A   Mostly Cloudy
3:53 PM 57.9 °F - 48.9 °F 72% 30.03 in 10.0 mi WSW 10.4 mph - N/A   Mostly Cloudy
4:53 PM 55.9 °F - 48.9 °F 77% 30.03 in 10.0 mi SSW 9.2 mph - N/A   Overcast
5:53 PM 55.0 °F - 48.9 °F 80% 30.03 in 10.0 mi SW 8.1 mph - N/A   Overcast
6:53 PM 54.0 °F - 48.9 °F 83% 30.03 in 10.0 mi SSW 8.1 mph - N/A   Overcast
7:15 PM 53.6 °F - 48.2 °F 82% 30.01 in 10.0 mi SW 9.2 mph - N/A   Overcast
7:53 PM 54.0 °F - 48.9 °F 83% 30.03 in 10.0 mi SSW 6.9 mph - N/A   Overcast
8:53 PM 54.0 °F - 48.9 °F 83% 30.04 in 10.0 mi SSW 8.1 mph - N/A   Overcast
9:53 PM 54.0 °F - 48.0 °F 80% 30.06 in 10.0 mi SW 6.9 mph - N/A   Overcast
10:53 PM 54.0 °F - 48.9 °F 83% 30.07 in 10.0 mi South 9.2 mph - N/A   Overcast
11:29 PM 53.6 °F - 48.2 °F 82% 30.07 in 10.0 mi South 10.4 mph - N/A   Overcast
11:53 PM 54.0 °F - 48.9 °F 83% 30.08 in 10.0 mi South 9.2 mph - N/A   Overcast